Вернуться в каталог

STARLINK-4296

АктивенСвязьVLEO
NORAD 52995·PAYLOAD·🇺🇸 United States

Запущен Jul 7, 2022 с Cape Canaveral Space Force Station

Loading…

Ближайшие Пролёты (ближайшие 24 часа)

TLE

СвежийSource: CelesTrak SupGP

Эпоха: Sep 14, 2026, 21:07 UTC

1 52995C 22076K   26257.88034722 -.00015835  00000+0 -45296-3 0  2572
2 52995  53.1574 309.7818 0001175  86.9738 135.7666 15.35413018    14

Отслеживайте STARLINK-4296 в реальном времени с AllMySat

Download on the App Store